Orbital Elements at Epoch 2459200.5 (2020-Dec-17.0) TDB
Reference: JPL 39 (heliocentric ecliptic J2000)
Element | Value | Uncertainty (1-sigma) | Units |
e | .09377257914016841 | 2.7607e-08 | |
a | 2.390357900277595 | 7.4937e-09 | au |
q | 2.166207874900487 | 6.6105e-08 | au |
i | 6.04043444629818 | 3.7681e-06 | deg |
node | 173.9364392666845 | 2.985e-05 | deg |
peri | 91.57232892633564 | 3.6459e-05 | deg |
M | 232.1033667306542 | 2.2052e-05 | deg |
tp | 2459680.067159665837 (2022-Apr-10.56715967) | 8.3309e-05 | TDB |
period | 1349.872729770131 3.70 | 6.3477e-06 1.738e-08 | d yr |
n | .2666918088354183 | 1.2541e-09 | deg/d |
Q | 2.614507925654703 | 8.1964e-09 | au |
|
| | Orbit Determination Parameters
Additional Information
|